• In Deutschland
  • Länderverzeichnis
  • Für 7 Tage
  • Wassertemperatur
  • Satellitenkarten
  • Wetterkarte
  • Widgets
  • user-avatar
    Anmelden

    Stündliche Wetter Gera

    Heute, 23 Januar, Dienstag

    Zeit Temperatur Niederschläge Wind Luftdruck Luftfeuchtigkeit
    00:00 +1°C° 0,2 mm 4 m/S 743 mmHg 95%
    01:00 +1°C° 0,2 mm 4 m/S 743 mmHg 95%
    02:00 +1°C° 0,3 mm 4 m/S 744 mmHg 95%
    03:00 +1°C° 0,3 mm 4 m/S 744 mmHg 95%
    04:00 +1°C° 0,3 mm 4 m/S 745 mmHg 95%
    05:00 +1°C° 0,2 mm 4 m/S 746 mmHg 96%
    06:00 +1°C° 0,2 mm 4 m/S 746 mmHg 96%
    07:00 +1°C° 0,2 mm 4 m/S 747 mmHg 96%
    08:00 +1°C° 0,1 mm 4 m/S 748 mmHg 95%
    09:00 +3°C° 0,1 mm 3 m/S 748 mmHg 95%
    10:00 +3°C° 0,1 mm 3 m/S 749 mmHg 95%
    11:00 +3°C° 0 mm 3 m/S 749 mmHg 93%
    12:00 +4°C° 0 mm 3 m/S 749 mmHg 91%
    13:00 +4°C° 0 mm 4 m/S 750 mmHg 90%
    14:00 +4°C° 0 mm 4 m/S 750 mmHg 90%
    15:00 +4°C° 0 mm 4 m/S 750 mmHg 91%
    16:00 +3°C° 0 mm 4 m/S 750 mmHg 91%
    17:00 +3°C° 0 mm 4 m/S 750 mmHg 91%
    18:00 +3°C° 0 mm 4 m/S 749 mmHg 91%
    19:00 +1°C° 0 mm 4 m/S 749 mmHg 91%
    20:00 +1°C° 0 mm 4 m/S 749 mmHg 91%
    21:00 +2°C° 0 mm 5 m/S 749 mmHg 90%
    22:00 +2°C° 0 mm 5 m/S 749 mmHg 90%
    23:00 +2°C° 0,5 mm 5 m/S 749 mmHg 90%

    Morgen, 24 Januar, Mittwoch

    Zeit Temperatur Niederschläge Wind Luftdruck Luftfeuchtigkeit
    00:00 +3°C° 0,5 mm 6 m/S 749 mmHg 90%
    01:00 +3°C° 0,5 mm 6 m/S 748 mmHg 90%
    02:00 +3°C° 0,3 mm 6 m/S 748 mmHg 90%
    03:00 +5°C° 0,3 mm 5 m/S 748 mmHg 91%
    04:00 +5°C° 0,3 mm 5 m/S 748 mmHg 91%
    05:00 +5°C° 0 mm 5 m/S 748 mmHg 91%
    06:00 +5°C° 0 mm 5 m/S 748 mmHg 91%
    07:00 +5°C° 0 mm 5 m/S 748 mmHg 91%
    08:00 +6°C° 0 mm 5 m/S 748 mmHg 91%
    09:00 +6°C° 0 mm 5 m/S 748 mmHg 90%
    10:00 +7°C° 0 mm 5 m/S 749 mmHg 90%
    11:00 +7°C° 0 mm 6 m/S 748 mmHg 89%
    12:00 +8°C° 0 mm 6 m/S 748 mmHg 87%
    13:00 +8°C° 0 mm 6 m/S 747 mmHg 86%
    14:00 +8°C° 0 mm 6 m/S 747 mmHg 87%
    15:00 +8°C° 0 mm 6 m/S 746 mmHg 87%
    16:00 +8°C° 0 mm 6 m/S 746 mmHg 88%
    17:00 +8°C° 0 mm 6 m/S 746 mmHg 88%
    18:00 +7°C° 0 mm 6 m/S 745 mmHg 88%
    19:00 +7°C° 0 mm 6 m/S 745 mmHg 89%
    20:00 +7°C° 0 mm 6 m/S 745 mmHg 86%
    21:00 +7°C° 0 mm 6 m/S 745 mmHg 83%
    22:00 +5°C° 0 mm 6 m/S 745 mmHg 81%
    23:00 +5°C° 0 mm 6 m/S 744 mmHg 81%

    übermorgen, 25 Januar, Donnerstag

    Zeit Temperatur Niederschläge Wind Luftdruck Luftfeuchtigkeit
    00:00 +5°C° 0 mm 6 m/S 744 mmHg 80%
    01:00 +5°C° 0 mm 6 m/S 744 mmHg 80%
    02:00 +5°C° 0 mm 6 m/S 744 mmHg 79%
    03:00 +5°C° 0 mm 6 m/S 743 mmHg 79%
    04:00 +5°C° 0 mm 6 m/S 743 mmHg 78%
    05:00 +5°C° 0 mm 6 m/S 743 mmHg 79%
    06:00 +5°C° 0 mm 6 m/S 743 mmHg 79%
    07:00 +5°C° 0 mm 6 m/S 742 mmHg 79%
    08:00 +5°C° 0,1 mm 6 m/S 742 mmHg 78%
    09:00 +7°C° 0,1 mm 6 m/S 742 mmHg 77%
    10:00 +6°C° 0,1 mm 7 m/S 742 mmHg 76%
    11:00 +7°C° 0 mm 6 m/S 742 mmHg 75%
    12:00 +8°C° 0 mm 6 m/S 742 mmHg 75%
    13:00 +8°C° 0 mm 6 m/S 742 mmHg 75%
    14:00 +8°C° 0 mm 5 m/S 742 mmHg 76%
    15:00 +8°C° 0 mm 5 m/S 741 mmHg 78%
    16:00 +8°C° 0 mm 4 m/S 741 mmHg 79%
    17:00 +7°C° 0,1 mm 4 m/S 741 mmHg 81%
    18:00 +7°C° 0,1 mm 4 m/S 741 mmHg 83%
    19:00 +6°C° 0,1 mm 4 m/S 741 mmHg 85%
    20:00 +7°C° 0,1 mm 3 m/S 742 mmHg 84%
    21:00 +7°C° 0,1 mm 3 m/S 742 mmHg 84%
    22:00 +5°C° 0,1 mm 3 m/S 742 mmHg 84%
    23:00 +5°C° 0,1 mm 3 m/S 742 mmHg 86%

    26 Januar, Freitag

    Zeit Temperatur Niederschläge Wind Luftdruck Luftfeuchtigkeit
    00:00 +5°C° 0,1 mm 3 m/S 742 mmHg 88%
    01:00 +6°C° 0,1 mm 2 m/S 742 mmHg 90%
    02:00 +6°C° 0,2 mm 2 m/S 742 mmHg 91%
    03:00 +6°C° 0,2 mm 2 m/S 742 mmHg 93%
    04:00 +6°C° 0,2 mm 1 m/S 742 mmHg 95%
    05:00 +6°C° 0,3 mm 1 m/S 742 mmHg 95%
    06:00 +6°C° 0,3 mm 1 m/S 743 mmHg 95%
    07:00 +6°C° 0,3 mm 1 m/S 743 mmHg 95%
    08:00 +6°C° 0,2 mm 1 m/S 743 mmHg 94%
    09:00 +6°C° 0,2 mm 1 m/S 743 mmHg 92%
    10:00 +6°C° 0,2 mm 1 m/S 744 mmHg 90%
    11:00 +7°C° 0,3 mm 1 m/S 744 mmHg 88%
    12:00 +6°C° 0,3 mm 2 m/S 744 mmHg 86%
    13:00 +6°C° 0,3 mm 2 m/S 744 mmHg 84%
    14:00 +6°C° 0,2 mm 2 m/S 744 mmHg 85%
    15:00 +7°C° 0,2 mm 1 m/S 744 mmHg 86%
    16:00 +7°C° 0,2 mm 1 m/S 745 mmHg 87%
    17:00 +6°C° 0 mm 1 m/S 745 mmHg 89%
    18:00 +6°C° 0 mm 1 m/S 745 mmHg 90%
    19:00 +4°C° 0 mm 2 m/S 746 mmHg 91%
    20:00 +4°C° 0 mm 2 m/S 746 mmHg 91%
    21:00 +4°C° 0 mm 2 m/S 747 mmHg 92%
    22:00 +4°C° 0 mm 2 m/S 747 mmHg 92%
    23:00 +3°C° 0 mm 2 m/S 748 mmHg 92%

    27 Januar, Samstag

    Zeit Temperatur Niederschläge Wind Luftdruck Luftfeuchtigkeit
    00:00 +3°C° 0 mm 2 m/S 748 mmHg 92%
    01:00 +3°C° 0 mm 2 m/S 748 mmHg 92%
    02:00 +2°C° 0 mm 2 m/S 749 mmHg 93%
    03:00 +2°C° 0 mm 2 m/S 749 mmHg 93%
    04:00 +2°C° 0 mm 2 m/S 749 mmHg 94%
    05:00 +1°C° 0 mm 2 m/S 750 mmHg 94%
    06:00 +1°C° 0 mm 2 m/S 750 mmHg 94%
    07:00 +1°C° 0 mm 2 m/S 751 mmHg 94%
    08:00 +2°C° 0 mm 2 m/S 751 mmHg 92%
    09:00 +1°C° 0 mm 3 m/S 752 mmHg 90%
    10:00 +2°C° 0 mm 3 m/S 753 mmHg 88%
    11:00 +3°C° 0 mm 3 m/S 753 mmHg 83%
    12:00 +4°C° 0 mm 3 m/S 753 mmHg 78%
    13:00 +4°C° 0 mm 3 m/S 753 mmHg 73%
    14:00 +4°C° 0 mm 3 m/S 753 mmHg 75%
    15:00 +4°C° 0 mm 3 m/S 753 mmHg 77%
    16:00 +4°C° 0 mm 2 m/S 754 mmHg 79%
    17:00 +4°C° 0 mm 2 m/S 754 mmHg 82%
    18:00 +3°C° 0 mm 2 m/S 754 mmHg 86%
    19:00 +2°C° 0 mm 2 m/S 754 mmHg 89%
    20:00 +1°C° 0 mm 3 m/S 754 mmHg 90%
    21:00 +1°C° 0 mm 3 m/S 754 mmHg 90%
    22:00 0°C° 0 mm 4 m/S 754 mmHg 90%
    23:00 0°C° 0 mm 5 m/S 754 mmHg 88%

    28 Januar, Sonntag

    Zeit Temperatur Niederschläge Wind Luftdruck Luftfeuchtigkeit
    00:00 0°C° 0 mm 5 m/S 753 mmHg 86%
    01:00 -1°C° 0 mm 6 m/S 753 mmHg 84%
    02:00 -1°C° 0 mm 6 m/S 752 mmHg 81%
    03:00 0°C° 0 mm 7 m/S 752 mmHg 78%
    04:00 0°C° 0 mm 8 m/S 751 mmHg 75%
    05:00 0°C° 0,2 mm 8 m/S 751 mmHg 76%
    06:00 +1°C° 0,2 mm 8 m/S 751 mmHg 78%
    07:00 +1°C° 0,2 mm 8 m/S 750 mmHg 80%
    08:00 +1°C° 0,3 mm 8 m/S 750 mmHg 81%
    09:00 +2°C° 0,3 mm 8 m/S 751 mmHg 83%
    10:00 +2°C° 0,3 mm 8 m/S 751 mmHg 84%
    11:00 +4°C° 0,1 mm 8 m/S 751 mmHg 84%
    12:00 +4°C° 0,1 mm 8 m/S 751 mmHg 84%
    13:00 +5°C° 0,1 mm 8 m/S 750 mmHg 84%
    14:00 +5°C° 0,2 mm 8 m/S 750 mmHg 85%
    15:00 +5°C° 0,2 mm 8 m/S 750 mmHg 86%
    16:00 +6°C° 0,2 mm 7 m/S 750 mmHg 87%
    17:00 +6°C° 0,3 mm 7 m/S 751 mmHg 88%
    18:00 +6°C° 0,3 mm 7 m/S 751 mmHg 89%
    19:00 +6°C° 0,3 mm 7 m/S 751 mmHg 89%
    20:00 +8°C° 0,2 mm 7 m/S 751 mmHg 89%
    21:00 +8°C° 0,2 mm 7 m/S 752 mmHg 90%
    22:00 +8°C° 0,2 mm 7 m/S 752 mmHg 90%
    23:00 +8°C° 0,2 mm 7 m/S 752 mmHg 90%
    Mehr zeigen